• En Estados Unidos
  • Lista de países
  • Para 7 días
  • Temperatura del agua
  • Mapa Satelital
  • El tiempo en el mapa
  • Informadores
  • user-avatar
    Iniciar sesión

    Tiempo cada hora Luanda

    Hoy, 24 Junio, Domingo

    Tiempo Temperatura Precipitaciones Viento Presión Humedad
    00:00 +22°C° 0 mm 1 mps 755 mmHg 94%
    01:00 +22°C° 0 mm 1 mps 755 mmHg 95%
    02:00 +22°C° 0 mm 1 mps 755 mmHg 96%
    03:00 +22°C° 0 mm 1 mps 755 mmHg 96%
    04:00 +21°C° 0 mm 1 mps 755 mmHg 96%
    05:00 +22°C° 0 mm 1 mps 755 mmHg 95%
    06:00 +22°C° 0 mm 1 mps 755 mmHg 94%
    07:00 +22°C° 0 mm 1 mps 755 mmHg 93%
    08:00 +24°C° 0 mm 1 mps 755 mmHg 86%
    09:00 +25°C° 0 mm 1 mps 756 mmHg 78%
    10:00 +26°C° 0 mm 1 mps 756 mmHg 71%
    11:00 +28°C° 0 mm 1 mps 755 mmHg 62%
    12:00 +31°C° 0 mm 2 mps 755 mmHg 52%
    13:00 +34°C° 0 mm 2 mps 754 mmHg 42%
    14:00 +33°C° 0 mm 3 mps 754 mmHg 47%
    15:00 +32°C° 0 mm 4 mps 753 mmHg 51%
    16:00 +30°C° 0 mm 4 mps 753 mmHg 55%
    17:00 +28°C° 0 mm 4 mps 753 mmHg 65%
    18:00 +26°C° 0 mm 4 mps 753 mmHg 75%
    19:00 +23°C° 0 mm 4 mps 754 mmHg 85%
    20:00 +23°C° 0 mm 4 mps 754 mmHg 88%
    21:00 +22°C° 0 mm 3 mps 755 mmHg 91%
    22:00 +23°C° 0 mm 2 mps 755 mmHg 94%
    23:00 +23°C° 0 mm 2 mps 755 mmHg 92%

    Mañana, 25 Junio, Lunes

    Tiempo Temperatura Precipitaciones Viento Presión Humedad
    00:00 +23°C° 0 mm 1 mps 756 mmHg 90%
    01:00 +24°C° 0 mm 1 mps 756 mmHg 89%
    02:00 +24°C° 0 mm 1 mps 756 mmHg 87%
    03:00 +24°C° 0 mm 1 mps 755 mmHg 85%
    04:00 +24°C° 0 mm 1 mps 755 mmHg 84%
    05:00 +24°C° 0 mm 1 mps 755 mmHg 84%
    06:00 +24°C° 0 mm 1 mps 755 mmHg 84%
    07:00 +24°C° 0 mm 1 mps 756 mmHg 84%
    08:00 +24°C° 0 mm 0 mps 756 mmHg 73%
    09:00 +26°C° 0 mm 0 mps 756 mmHg 63%
    10:00 +29°C° 0 mm 0 mps 756 mmHg 52%
    11:00 +32°C° 0 mm 1 mps 755 mmHg 48%
    12:00 +34°C° 0 mm 2 mps 755 mmHg 44%
    13:00 +35°C° 0 mm 3 mps 754 mmHg 40%
    14:00 +34°C° 0 mm 3 mps 753 mmHg 45%
    15:00 +33°C° 0 mm 4 mps 753 mmHg 50%
    16:00 +32°C° 0 mm 4 mps 752 mmHg 55%
    17:00 +29°C° 0 mm 4 mps 753 mmHg 64%
    18:00 +26°C° 0 mm 4 mps 753 mmHg 72%
    19:00 +23°C° 0 mm 4 mps 754 mmHg 81%
    20:00 +24°C° 0 mm 3 mps 754 mmHg 84%
    21:00 +24°C° 0 mm 3 mps 755 mmHg 87%
    22:00 +22°C° 0 mm 3 mps 755 mmHg 90%
    23:00 +22°C° 0 mm 3 mps 755 mmHg 92%

    Pasado mañana, 26 Junio, Martes

    Tiempo Temperatura Precipitaciones Viento Presión Humedad
    00:00 +21°C° 0 mm 2 mps 755 mmHg 93%
    01:00 +21°C° 0 mm 2 mps 755 mmHg 95%
    02:00 +23°C° 0 mm 2 mps 755 mmHg 93%
    03:00 +23°C° 0 mm 2 mps 755 mmHg 91%
    04:00 +23°C° 0 mm 2 mps 754 mmHg 89%
    05:00 +23°C° 0 mm 2 mps 754 mmHg 87%
    06:00 +24°C° 0 mm 2 mps 755 mmHg 85%
    07:00 +24°C° 0 mm 2 mps 755 mmHg 83%
    08:00 +26°C° 0 mm 1 mps 755 mmHg 72%
    09:00 +28°C° 0 mm 1 mps 755 mmHg 61%
    10:00 +28°C° 0 mm 0 mps 755 mmHg 50%
    11:00 +32°C° 0 mm 1 mps 755 mmHg 45%
    12:00 +34°C° 0 mm 2 mps 754 mmHg 40%
    13:00 +35°C° 0 mm 3 mps 753 mmHg 35%
    14:00 +34°C° 0 mm 3 mps 753 mmHg 41%
    15:00 +33°C° 0 mm 4 mps 752 mmHg 48%
    16:00 +30°C° 0 mm 5 mps 752 mmHg 54%
    17:00 +28°C° 0 mm 4 mps 752 mmHg 64%
    18:00 +26°C° 0 mm 4 mps 753 mmHg 73%
    19:00 +23°C° 0 mm 4 mps 753 mmHg 83%
    20:00 +24°C° 0 mm 3 mps 754 mmHg 86%
    21:00 +22°C° 0 mm 3 mps 754 mmHg 90%
    22:00 +22°C° 0 mm 3 mps 755 mmHg 93%
    23:00 +21°C° 0 mm 3 mps 755 mmHg 94%

    27 Junio, Miércoles

    Tiempo Temperatura Precipitaciones Viento Presión Humedad
    00:00 +21°C° 0 mm 3 mps 755 mmHg 95%
    01:00 +21°C° 0 mm 2 mps 754 mmHg 96%
    02:00 +21°C° 0 mm 2 mps 754 mmHg 96%
    03:00 +22°C° 0 mm 1 mps 754 mmHg 96%
    04:00 +22°C° 0 mm 1 mps 754 mmHg 97%
    05:00 +22°C° 0 mm 1 mps 754 mmHg 95%
    06:00 +22°C° 0 mm 1 mps 755 mmHg 94%
    07:00 +23°C° 0 mm 1 mps 755 mmHg 93%
    08:00 +25°C° 0 mm 1 mps 755 mmHg 81%
    09:00 +25°C° 0 mm 0 mps 755 mmHg 68%
    10:00 +28°C° 0 mm 0 mps 755 mmHg 56%
    11:00 +31°C° 0 mm 1 mps 754 mmHg 51%
    12:00 +32°C° 0 mm 2 mps 754 mmHg 45%
    13:00 +34°C° 0 mm 3 mps 753 mmHg 40%
    14:00 +33°C° 0 mm 4 mps 753 mmHg 47%
    15:00 +30°C° 0 mm 5 mps 752 mmHg 55%
    16:00 +29°C° 0 mm 5 mps 752 mmHg 62%
    17:00 +27°C° 0 mm 5 mps 752 mmHg 69%
    18:00 +26°C° 0 mm 4 mps 753 mmHg 76%
    19:00 +23°C° 0 mm 4 mps 754 mmHg 83%
    20:00 +24°C° 0 mm 3 mps 754 mmHg 86%
    21:00 +22°C° 0 mm 3 mps 755 mmHg 89%
    22:00 +22°C° 0 mm 3 mps 755 mmHg 92%
    23:00 +23°C° 0 mm 2 mps 755 mmHg 92%

    28 Junio, Jueves

    Tiempo Temperatura Precipitaciones Viento Presión Humedad
    00:00 +23°C° 0 mm 2 mps 755 mmHg 92%
    01:00 +23°C° 0 mm 1 mps 755 mmHg 92%
    02:00 +22°C° 0 mm 1 mps 755 mmHg 93%
    03:00 +22°C° 0 mm 1 mps 754 mmHg 93%
    04:00 +22°C° 0 mm 1 mps 754 mmHg 94%
    05:00 +22°C° 0 mm 1 mps 755 mmHg 93%
    06:00 +22°C° 0 mm 1 mps 755 mmHg 93%
    07:00 +22°C° 0 mm 1 mps 755 mmHg 93%
    08:00 +24°C° 0 mm 1 mps 755 mmHg 82%
    09:00 +26°C° 0 mm 1 mps 756 mmHg 71%
    10:00 +28°C° 0 mm 1 mps 756 mmHg 59%
    11:00 +30°C° 0 mm 2 mps 755 mmHg 54%
    12:00 +31°C° 0 mm 3 mps 754 mmHg 48%
    13:00 +33°C° 0 mm 4 mps 753 mmHg 43%
    14:00 +32°C° 0 mm 4 mps 753 mmHg 49%
    15:00 +30°C° 0 mm 4 mps 752 mmHg 55%
    16:00 +29°C° 0 mm 5 mps 752 mmHg 61%
    17:00 +27°C° 0 mm 5 mps 753 mmHg 68%
    18:00 +26°C° 0 mm 5 mps 753 mmHg 76%
    19:00 +23°C° 0 mm 5 mps 754 mmHg 83%
    20:00 +23°C° 0 mm 4 mps 754 mmHg 86%
    21:00 +22°C° 0 mm 3 mps 755 mmHg 89%
    22:00 +23°C° 0 mm 2 mps 755 mmHg 92%
    23:00 +23°C° 0 mm 1 mps 755 mmHg 92%

    29 Junio, Viernes

    Tiempo Temperatura Precipitaciones Viento Presión Humedad
    00:00 +23°C° 0 mm 1 mps 755 mmHg 92%
    01:00 +23°C° 0 mm 1 mps 755 mmHg 92%
    02:00 +23°C° 0 mm 1 mps 755 mmHg 92%
    03:00 +22°C° 0 mm 1 mps 754 mmHg 92%
    04:00 +22°C° 0 mm 1 mps 754 mmHg 92%
    05:00 +22°C° 0 mm 1 mps 754 mmHg 91%
    06:00 +23°C° 0 mm 1 mps 755 mmHg 90%
    07:00 +23°C° 0 mm 1 mps 755 mmHg 89%
    08:00 +24°C° 0 mm 1 mps 755 mmHg 81%
    09:00 +26°C° 0 mm 1 mps 755 mmHg 72%
    10:00 +27°C° 0 mm 1 mps 755 mmHg 64%
    11:00 +29°C° 0 mm 2 mps 755 mmHg 57%
    12:00 +30°C° 0 mm 2 mps 754 mmHg 51%
    13:00 +33°C° 0 mm 3 mps 753 mmHg 44%
    14:00 +32°C° 0 mm 4 mps 753 mmHg 50%
    15:00 +30°C° 0 mm 4 mps 753 mmHg 55%
    16:00 +29°C° 0 mm 5 mps 752 mmHg 60%
    17:00 +27°C° 0 mm 5 mps 753 mmHg 68%
    18:00 +25°C° 0 mm 4 mps 753 mmHg 75%
    19:00 +23°C° 0 mm 4 mps 754 mmHg 83%
    20:00 +22°C° 0 mm 4 mps 754 mmHg 86%
    21:00 +22°C° 0 mm 4 mps 755 mmHg 89%
    22:00 +22°C° 0 mm 3 mps 755 mmHg 93%
    23:00 +22°C° 0 mm 3 mps 755 mmHg 92%
    Mostrar más